HOWARD Weather Reports


time (UTC)temp
C
wind
direction
speed
KPH
gust
KPH
rain 1hr
cm
rain 24hr
cm
rain mn
cm
humidity
%
barometer
mb
20260503070144 7 0 0.0 3.2 0.00 0.00 0.00 53 1015.2
20260503060145 7 20 3.2 6.4 0.00 0.00 0.00 53 1015.3
20260503054145 7 31 3.2 6.4 0.00 0.00 0.00 53 1015.3
20260503053144 7 31 1.6 4.8 0.00 0.00 0.00 50 1015.5
20260503052144 7 31 1.6 4.8 0.00 0.00 0.00 47 1015.5
20260503051145 7 31 1.6 6.4 0.00 0.00 0.00 47 1015.5
20260503050144 7 17 4.8 9.7 0.00 0.00 0.00 48 1015.5
20260503045144 7 33 4.8 9.7 0.00 0.00 0.00 47 1015.5
20260503044215 7 28 4.8 9.7 0.00 0.00 0.00 51 1015.5
20260503044144 7 28 4.8 9.7 0.00 0.00 0.00 51 1015.5
20260503043216 7 29 4.8 8.0 0.00 0.00 0.00 48 1015.4
20260503043144 7 29 4.8 8.0 0.00 0.00 0.00 48 1015.4
20260503042144 7 356 6.4 9.7 0.00 0.00 0.00 50 1015.3
20260503041144 7 333 1.6 9.7 0.00 0.00 0.00 52 1015.3
20260503040144 7 328 1.6 6.4 0.00 0.00 0.00 53 1015.3
20260503035144 7 0 0.0 4.8 0.00 0.00 0.00 54 1015.3
20260503034144 7 328 3.2 6.4 0.00 0.00 0.00 55 1015.1
20260503033144 7 328 1.6 3.2 0.00 0.00 0.00 55 1014.9
20260503032227 7 0 0.0 3.2 0.00 0.00 0.00 55 1014.8
20260503032144 7 0 0.0 3.2 0.00 0.00 0.00 55 1014.8
20260503031144 7 328 1.6 4.8 0.00 0.00 0.00 54 1014.7
20260503030144 7 328 1.6 8.0 0.00 0.00 0.00 52 1014.7
20260503025146 7 322 1.6 8.0 0.00 0.00 0.00 52 1014.7
20260503024144 7 320 3.2 9.7 0.00 0.00 0.00 52 1014.6
20260503023144 7 329 4.8 12.9 0.00 0.00 0.00 50 1014.7
20260503022144 7 344 4.8 9.7 0.00 0.00 0.00 52 1014.7
20260503021144 7 348 6.4 11.3 0.00 0.00 0.00 53 1014.7
20260503020144 8 311 4.8 16.1 0.00 0.00 0.00 55 1014.8
20260503015218 8 352 8.0 16.1 0.00 0.00 0.00 55 1014.8
20260503015144 8 352 8.0 16.1 0.00 0.00 0.00 55 1014.8
20260503014144 8 354 4.8 9.7 0.00 0.00 0.00 51 1014.7
20260503013144 8 59 4.8 11.3 0.00 0.00 0.00 50 1014.8
20260503012215 8 32 8.0 12.9 0.00 0.00 0.00 49 1014.9
20260503012144 8 32 8.0 12.9 0.00 0.00 0.00 49 1014.9
20260503011144 8 72 3.2 12.9 0.00 0.00 0.00 50 1014.9
20260503010220 9 49 4.8 9.7 0.00 0.00 0.00 49 1014.9
20260503010144 9 49 4.8 9.7 0.00 0.00 0.00 49 1014.9
20260503005144 10 20 6.4 14.5 0.00 0.00 0.00 47 1015.0
20260503004144 10 17 8.0 16.1 0.00 0.00 0.00 47 1015.0
20260503003144 10 332 8.0 19.3 0.00 0.00 0.00 46 1014.9
20260503002144 10 309 6.4 17.7 0.00 0.00 0.00 44 1014.8
20260503001144 11 302 6.4 19.3 0.00 0.00 0.00 44 1014.8
20260503000218 10 308 8.0 17.7 0.00 0.00 0.00 45 1014.8
20260503000144 10 308 8.0 17.7 0.00 0.00 0.00 45 1014.8
20260502235144 10 295 8.0 20.9 0.00 0.00 0.00 45 1014.8
20260502234217 11 322 8.0 20.9 0.00 0.00 0.00 1014.9
20260502234144 11 322 8.0 20.9 0.00 0.00 0.00 1014.9
20260502233144 11 314 11.3 19.3 0.00 0.00 0.00 43 1015.0
20260502232144 11 328 4.8 19.3 0.00 0.00 0.00 41 1015.2
20260502231351 11 323 3.2 12.9 0.00 0.00 0.00 36 1015.1
20260502231320 11 307 6.4 14.5 0.00 0.00 0.00 1015.2
20260502231144 11 323 3.2 12.9 0.00 0.00 0.00 36 1015.1
20260502230144 11 307 6.4 14.5 0.00 0.00 0.00 1015.2
20260502225152 12 328 3.2 14.5 0.00 0.00 0.00 35 1014.7
20260502225144 11 26 8.0 16.1 0.00 0.00 0.00 34 1015.3
20260502224144 12 328 3.2 14.5 0.00 0.00 0.00 35 1014.7
20260502223144 12 309 4.8 14.5 0.00 0.00 0.00 35 1014.9
20260502222144 11 328 4.8 17.7 0.00 0.00 0.00 34 1014.9
20260502221147 11 297 6.4 17.7 0.00 0.00 0.00 36 1015.0
20260502220144 10 17 3.2 12.9 0.00 0.00 0.00 38 1015.2
20260502215144 10 20 8.0 16.1 0.00 0.00 0.00 37 1015.3
20260502214144 10 5 3.2 14.5 0.00 0.00 0.00 39 1015.5
20260502213144 10 41 4.8 14.5 0.00 0.00 0.00 36 1015.6
20260502212144 10 326 3.2 11.3 0.00 0.00 0.00 37 1015.7
20260502211144 10 338 1.6 12.9 0.00 0.00 0.00 39 1015.7
20260502210144 10 9 4.8 11.3 0.00 0.00 0.00 37 1015.7
20260502205144 10 30 4.8 12.9 0.00 0.00 0.00 37 1015.8
20260502204144 10 3 6.4 11.3 0.00 0.00 0.00 37 1015.8
20260502203144 11 319 4.8 12.9 0.00 0.00 0.00 37 1015.7
20260502202144 11 327 6.4 11.3 0.00 0.00 0.00 37 1015.9
20260502201224 10 299 4.8 9.7 0.00 0.00 0.00 40 1015.9
20260502201144 10 299 4.8 9.7 0.00 0.00 0.00 40 1015.9
20260502200144 10 308 4.8 14.5 0.00 0.00 0.00 37 1015.9
20260502195144 10 14 3.2 9.7 0.00 0.00 0.00 37 1015.9
20260502194220 10 315 4.8 9.7 0.00 0.00 0.00 35 1015.9
20260502194144 10 315 4.8 9.7 0.00 0.00 0.00 35 1015.9
20260502193144 10 316 4.8 14.5 0.00 0.00 0.00 35 1016.1
20260502192144 11 303 4.8 12.9 0.00 0.00 0.00 37 1016.0
20260502191144 11 287 3.2 12.9 0.00 0.00 0.00 37 1016.1
20260502190144 11 320 4.8 14.5 0.00 0.00 0.00 36 1016.1
20260502185144 11 308 4.8 9.7 0.00 0.00 0.00 36 1016.3
20260502184144 11 283 3.2 9.7 0.00 0.00 0.00 33 1015.6
20260502183144 11 270 3.2 9.7 0.00 0.00 0.00 36 1015.7
20260502182144 11 267 3.2 11.3 0.00 0.00 0.00 37 1015.6
20260502181144 11 290 3.2 6.4 0.00 0.00 0.00 37 1015.7
20260502180143 11 288 3.2 6.4 0.00 0.00 0.00 37 1015.7
20260502170143 10 162 3.2 8.0 0.00 0.00 0.00 28 1015.8
20260502164144 10 195 1.6 4.8 0.00 0.00 0.00 28 1015.6
20260502163219 10 205 1.6 8.0 0.00 0.00 0.00 28 1015.6
20260502163143 10 205 1.6 8.0 0.00 0.00 0.00 28 1015.6
20260502162143 10 240 1.6 11.3 0.00 0.00 0.00 29 1015.6
20260502161143 9 219 1.6 6.4 0.00 0.00 0.00 30 1015.4
20260502160143 9 184 1.6 8.0 0.00 0.00 0.00 30 1015.4
20260502152143 7 226 4.8 11.3 0.00 0.00 0.00 32 1015.3
20260502151143 7 224 4.8 14.5 0.00 0.00 0.00 32 1015.3
20260502150143 7 224 4.8 14.5 0.00 0.00 0.00 33 1015.0
20260502130143 6 204 4.8 12.9 0.00 0.00 0.00 41 1014.2
20260502123143 6 214 8.0 24.1 0.00 0.00 0.00 43 1014.2
20260502122143 6 207 9.7 24.1 0.00 0.00 0.00 43 1014.2
20260502121143 6 214 12.9 27.4 0.00 0.00 0.00 45 1014.2
20260502120143 6 203 9.7 22.5 0.00 0.00 0.00 45 1014.2
20260502115143 6 203 11.3 20.9 0.00 0.00 0.00 44 1014.3
20260502114143 6 200 9.7 19.3 0.00 0.00 0.00 45 1014.3
20260502113143 6 179 9.7 22.5 0.00 0.00 0.00 44 1014.3
20260502112143 6 202 12.9 22.5 0.00 0.00 0.00 45 1014.3
20260502111144 6 189 8.0 27.4 0.00 0.00 0.00 45 1014.3
20260502110143 6 210 12.9 25.7 0.00 0.00 0.00 45 1014.4
20260502105143 6 203 11.3 30.6 0.00 0.00 0.00 47 1014.4
20260502104143 6 205 8.0 19.3 0.00 0.00 0.00 48 1014.5
20260502103225 5 195 4.8 14.5 0.00 0.00 0.00 50 1014.3
20260502103143 5 195 4.8 14.5 0.00 0.00 0.00 50 1014.3
20260502102143 5 196 1.6 14.5 0.00 0.00 0.00 50 1014.5
20260502101143 5 193 6.4 11.3 0.00 0.00 0.00 49 1014.6
20260502100143 5 198 3.2 12.9 0.00 0.00 0.00 49 1014.6
20260502091143 5 231 6.4 12.9 0.00 0.00 0.00 50 1014.8
20260502090143 5 238 8.0 17.7 0.00 0.00 0.00 49 1015.0
20260502071143 6 232 6.4 9.7 0.00 0.00 0.00 27 1015.2